Lamoni, IA

12:11 AM CDT on October 20, 2017 (GMT -0500)
Lamoni Municipal

Weather History for KLWD - May, 2012

Change the Weather History Date:

Sunday, May 6, 2012

  Actual Average Record
Temperature  
Mean Temperature 71 °F 58 °F  
Max Temperature 80 °F 68 °F 84 °F (2004)
Min Temperature 61 °F 48 °F 34 °F (1989)
Degree Days  
Heating Degree Days 0 8  
Month to date heating degree days 1 50  
Since 1 July heating degree days 4757 5945  
Cooling Degree Days 6 1  
Month to date cooling degree days 33 2  
Year to date cooling degree days 83 9  
Growing Degree Days 20 (Base 50)    
Moisture  
Dew Point 64 °F    
Average Humidity 81    
Maximum Humidity 90    
Minimum Humidity 71    
Precipitation  
Precipitation 0.71 in 0.16 in 2.86 in (2007)
Month to date precipitation 2.37 1.02  
Year to date precipitation 12.02  
Sea Level Pressure  
Sea Level Pressure 29.87 in    
Wind  
Wind Speed 10 mph (NE)    
Max Wind Speed 25 mph    
Max Gust Speed 33 mph    
Visibility 8 miles    
Events Rain , Thunderstorm    
T = Trace of Precipitation, MM = Missing Value Source: NWS Daily Summary

Daily Weather History Graph

Daily Weather History Graph

Search for Another Location

Airport or City:

Trip Planner

Search our weather history database for the weather conditions in past years. The results will help you decide how hot, cold, wet, or windy it might be!

Date:

Astronomy

May. 06, 2012 Rise Set
Actual Time 6:07 AM CDT 8:17 PM CDT
Civil Twilight 5:37 AM CDT 8:47 PM CDT
Nautical Twilight 5:00 AM CDT 9:24 PM CDT
Astronomical Twilight 4:20 AM CDT 10:05 PM CDT
Moon 9:23 PM CDT (5/6) 6:18 AM CDT (5/6)
Length of Visible Light 15h 10m
Length of Day
14h 09m
Full, 100% of the Moon is Illuminated
May 6
Full
May 12
Last Quarter
May 20
New
May 28
First Quarter
Jun 4
Full

Hourly Weather History & Observations

Time (CDT) Temp. Dew Point Humidity Pressure Visibility Wind Dir Wind Speed Gust Speed Precip Events Conditions
12:53 AM 73.0 °F 68.0 °F 84% 29.81 in 10.0 mi ESE 4.6 mph - N/A   Clear
1:53 AM 73.0 °F 68.0 °F 84% 29.80 in 10.0 mi ESE 5.8 mph - N/A   Overcast
2:53 AM 73.0 °F 68.0 °F 84% 29.81 in 10.0 mi South 5.8 mph - N/A   Mostly Cloudy
3:53 AM 71.1 °F 68.0 °F 90% 29.83 in 10.0 mi ESE 3.5 mph - N/A   Partly Cloudy
4:53 AM 71.1 °F 68.0 °F 90% 29.80 in 10.0 mi SE 8.1 mph - N/A   Overcast
5:53 AM 70.0 °F 66.9 °F 90% 29.79 in 10.0 mi SSE 8.1 mph - N/A   Scattered Clouds
6:53 AM 70.0 °F 66.9 °F 90% 29.80 in 9.0 mi SSE 5.8 mph - N/A   Partly Cloudy
7:53 AM 71.1 °F 66.9 °F 87% 29.82 in 10.0 mi SSE 6.9 mph - N/A   Partly Cloudy
8:31 AM 69.8 °F 64.4 °F 83% 29.88 in 9.0 mi WNW 12.7 mph 25.3 mph 0.01 in Rain , Thunderstorm Light Thunderstorms and Rain
8:50 AM 66.2 °F 62.6 °F 88% 29.90 in 3.0 mi NNW 9.2 mph - 0.07 in Rain , Thunderstorm Rain
8:53 AM 66.9 °F 63.0 °F 87% 29.87 in 5.0 mi North 9.2 mph - 0.07 in Rain , Thunderstorm Light Rain
9:35 AM 66.2 °F 62.6 °F 88% 29.90 in 10.0 mi North 9.2 mph - 0.00 in   Partly Cloudy
9:53 AM 68.0 °F 64.0 °F 87% 29.86 in 10.0 mi NNE 10.4 mph - 0.00 in   Clear
10:53 AM 70.0 °F 64.9 °F 84% 29.86 in 10.0 mi NE 11.5 mph - N/A   Clear
11:53 AM 70.0 °F 64.9 °F 84% 29.85 in 10.0 mi East 9.2 mph 16.1 mph N/A   Clear
12:53 PM 72.0 °F 66.9 °F 84% 29.85 in 10.0 mi SSE 10.4 mph 16.1 mph N/A   Clear
1:21 PM 73.4 °F 66.2 °F 78% 29.88 in 10.0 mi SSE 10.4 mph - N/A   Mostly Cloudy
1:42 PM 73.4 °F 68.0 °F 83% 29.86 in 10.0 mi SSE 6.9 mph - N/A   Scattered Clouds
1:53 PM 73.0 °F 66.9 °F 81% 29.82 in 10.0 mi SSE 6.9 mph - N/A   Clear
2:53 PM 75.9 °F 69.1 °F 79% 29.81 in 10.0 mi NW 8.1 mph - N/A   Partly Cloudy
3:53 PM 79.0 °F 68.0 °F 69% 29.83 in 10.0 mi NW 8.1 mph - N/A   Clear
4:53 PM 78.1 °F 68.0 °F 71% 29.83 in 10.0 mi North 6.9 mph - N/A   Mostly Cloudy
5:53 PM 75.9 °F 68.0 °F 76% 29.82 in 10.0 mi North 8.1 mph - N/A   Scattered Clouds
6:53 PM 73.0 °F 64.0 °F 73% 29.83 in 10.0 mi NNE 12.7 mph 23.0 mph N/A   Mostly Cloudy
7:53 PM 70.0 °F 62.1 °F 76% 29.85 in 10.0 mi NNE 13.8 mph 23.0 mph N/A   Overcast
8:53 PM 69.1 °F 60.1 °F 73% 29.89 in 10.0 mi NNE 18.4 mph 25.3 mph N/A   Mostly Cloudy
9:53 PM 68.0 °F 60.1 °F 76% 29.89 in 10.0 mi NNE 18.4 mph 23.0 mph N/A   Overcast
10:41 PM 64.4 °F 59.0 °F 83% 29.91 in 4.0 mi NE 21.9 mph 31.1 mph 0.02 in Rain , Thunderstorm Light Rain
10:53 PM 63.0 °F 57.9 °F 84% 29.90 in 8.0 mi NNE 18.4 mph - 0.03 in Rain , Thunderstorm Thunderstorms and Rain
11:10 PM 62.6 °F 59.0 °F 88% 29.96 in 4.0 mi Calm Calm - 0.03 in Rain , Thunderstorm Rain
11:15 PM 62.6 °F 59.0 °F 88% 29.97 in 1.8 mi West 10.4 mph - 0.10 in Rain , Thunderstorm Heavy Thunderstorms and Rain
11:26 PM 60.8 °F 59.0 °F 94% 29.96 in 1.5 mi NW 16.1 mph - 0.33 in Rain , Thunderstorm Heavy Thunderstorms and Rain
11:31 PM 60.8 °F 59.0 °F 94% 29.96 in 2.0 mi NW 11.5 mph - 0.40 in Rain , Thunderstorm Heavy Rain
11:41 PM 60.8 °F 59.0 °F 94% 29.97 in 4.0 mi North 6.9 mph - 0.43 in Rain , Thunderstorm Thunderstorms and Rain
11:53 PM 61.0 °F 59.0 °F 93% 29.95 in 7.0 mi North 6.9 mph - 0.44 in Rain , Thunderstorm Light Rain